Location: Unspecified
(48.8656°N, 0.0000°E)
Time: 21:45:32
(UTC+00:00)

SR - Pass Details

Date: 29 June 2019
Orbit: 580 x 876 km, 66.7° (Epoch: 17 July)

Event Time Altitude Azimuth Distance (km) Brightness Sun altitude
Rises 00:46:21 0° 162° (SSE) 2,787 - -17.2°
Reaches altitude 10° 00:49:36 10° 135° (SE) 1,896 - -17.1°
Exits shadow 00:50:07 11° 129° (SE) 1,811 ? -17.1°
Maximum altitude 00:51:37 13° 106° (ESE) 1,705 ? -17.1°
Drops below altitude 10° 00:53:39 10° 78° (ENE) 1,926 ? -17.0°
Sets 00:57:00 0° 51° (NE) 2,871 ? -16.9°
